sat.trackr.live / text

‹ back to catalog

APSTAR-7

NORAD 38107 · 2012-013A

PAYLOAD ACTIVE UNKNOWN

§ Identity

Operator
Country
PRC
Launch date
2012-03-31
Launch site
XICLF
Launch vehicle
Mass (kg)
RCS (m²)
0.00

Purposes: comms

External: N2YO · Heavens-Above · Gunter

§ Orbital elements

Epoch: 2026-09-20T01:53:15.021312Z

Period
1,436.09 min
Inclination
0.0081°
Eccentricity
0.0002620
Mean motion
1.00272159 rev/d
Perigee alt
35,775.4 km
Apogee alt
35,797.5 km
Semi-major
42,164.6 km
B*
0.0000e+0
RAAN
179.2107°
Arg perigee
352.3691°
Mean anomaly
292.2315°
Rev number
5,277

§ Raw data

APSTAR-71 38107U 12013A   26263.07864608 -.00000106  00000+0  00000+0 0  99902 38107   0.0081 179.2107 0002620 352.3691 292.2315  1.00272159 52778

JSON: /api/v1/satellites/38107 · /tle

For live sub-satellite position, see the globe view (requires WebGL).

§ Visibility from observer

Set your observer location to see the next 7 days of passes ≥ 10°. The values pass through the URL so the page stays shareable.

No JS? Fill the form by hand. The geolocation button needs JavaScript.